GFSSGP_prec_cloud_105.txt.gz
Cloud_Cover
10 5 5 3 0 2 25 5 92 50 6 100 5 5 2 0 5 73 62 14 11 14 26 5 5 9 73 100 100 8 5 5 5 0 0 0 0 0 3 5 4 5 5 11 0 0 0 0 0
74 49 5 5 4 0 5 0 88 2 75 25 8 5 4 5 3 4 6 5 5 28 91 64 6 5 5 5 31 11 51 29 5 2 0 0 0 0 0 0 0 0 0 0 0 0 0 0 0
72 99 50 5 3 2 24 74 67 49 7 24 18 32 4 44 21 34 5 5 5 25 90 94 7 64 16 5 5 51 86 24 5 0 0 0 0 0 0 0 0 0 0 0 0 0 0 0 0
10 52 44 5 5 20 8 21 12 14 0 5 99 72 63 7 42 5 5 12 5 9 13 39 5 5 30 5 5 2 3 6 10 5 0 0 0 0 0 0 0 0 0 0 0 0 0 0 0
14 5 5 5 85 81 73 8 6 1 0 4 5 86 55 22 5 23 8 5 95 81 50 13 5 5 7 6 5 5 0 0 0 2 0 0 0 0 0 0 0 0 0 0 0 0 0 0 0
14 5 0 4 22 100 96 2 5 1 5 5 2 11 5 74 5 16 5 9 5 65 96 48 15 5 9 42 11 3 0 0 0 0 0 0 0 0 0 0 0 0 0 0 0 0 0 0 0
49 5 2 5 5 51 86 0 5 8 5 5 5 5 5 3 19 11 5 8 15 7 6 62 61 5 10 5 5 5 5 3 2 0 0 0 0 0 0 0 0 0 0 0 0 0 0 0 0
72 80 5 9 93 100 51 0 5 21 5 95 10 98 42 3 96 86 79 27 50 20 5 0 1 5 5 5 6 3 5 3 5 4 0 0 0 0 0 0 0 0 0 0 5 4 3 0 0
100 10 74 100 100 100 62 1 2 5 5 42 100 100 2 20 93 4 5 44 94 98 94 25 3 5 5 21 21 17 11 5 5 5 5 68 1 1 1 0 0 0 0 0 0 0 0 0 0
84 100 100 100 92 20 88 47 7 16 32 8 4 2 0 5 7 5 5 34 93 100 100 100 76 4 2 5 5 5 5 4 0 5 5 5 5 5 5 2 0 0 0 0 0 0 0 0 0
6 20 100 100 100 100 100 100 99 42 86 40 82 1 0 4 18 5 5 98 56 30 98 100 24 6 5 3 5 5 5 5 26 5 5 4 1 4 4 5 4 0 0 0 0 0 0 2 4
0 0 47 100 100 100 100 100 98 100 89 59 100 100 51 2 6 28 58 99 5 51 100 53 25 53 91 99 91 100 51 58 83 52 25 10 5 5 28 13 6 5 5 0 0 0 4 5 21
0 0 0 4 10 100 100 100 92 100 100 100 65 99 100 100 59 38 99 12 48 61 100 100 66 100 100 100 100 100 100 100 100 100 100 100 97 98 83 80 82 41 7 5 5 1 4 0 2
0 0 0 0 34 36 2 42 100 100 100 100 100 86 58 61 94 13 5 6 76 99 10 64 82 100 100 100 100 100 100 100 100 100 91 31 10 61 78 100 98 91 99 96 19 5 3 0 3
5 0 0 0 0 0 1 0 0 59 100 100 100 100 100 97 81 78 58 62 38 65 62 78 80 82 23 67 100 100 100 100 100 100 100 100 100 99 100 88 92 68 100 98 69 96 48 5 4
100 96 2 0 0 0 0 0 0 0 2 94 100 100 100 100 100 92 100 100 100 100 20 79 98 76 99 17 8 39 79 100 100 100 93 91 99 99 100 100 100 100 68 94 50 74 99 62 26
100 100 91 95 0 0 0 0 0 0 0 0 29 99 93 76 100 100 100 100 100 100 100 100 62 39 96 84 68 13 5 6 70 99 89 79 42 100 68 42 52 99 100 35 96 88 81 100 83
100 100 100 100 6 0 0 0 0 0 0 0 0 0 1 3 68 98 84 100 99 98 100 100 100 96 90 61 100 100 5 8 82 54 14 100 26 93 100 98 100 54 71 45 96 99 100 100 100
93 100 100 100 100 5 5 5 0 1 0 0 0 0 0 4 0 32 15 57 36 29 92 100 100 100 46 61 40 65 91 11 100 95 5 6 25 99 100 97 43 100 95 99 96 53 100 100 100
23 97 100 100 100 42 100 100 32 12 4 14 14 11 5 4 3 0 0 0 0 0 0 0 8 28 5 14 1 0 0 4 6 72 100 99 82 81 100 100 100 99 97 100 98 100 100 100 100
5 87 100 100 100 98 99 100 100 79 15 94 19 31 72 5 0 0 0 0 0 0 0 0 0 0 0 0 0 0 0 0 0 14 100 100 100 92 100 100 100 99 99 98 100 100 100 100 100
4 82 98 100 100 100 100 100 100 100 100 100 100 77 56 5 0 0 0 0 0 0 0 0 0 0 0 0 0 9 1 2 8 5 95 100 100 100 100 100 100 100 84 80 100 100 100 100 100
5 8 21 92 100 100 100 100 100 100 100 92 98 40 5 5 0 0 0 0 0 0 0 0 0 0 0 0 0 0 0 6 0 1 98 100 100 100 100 98 99 49 85 41 100 100 100 100 100
95 89 43 34 82 82 100 100 100 100 100 100 89 5 4 5 0 0 0 0 0 0 0 0 0 0 0 0 0 0 0 0 0 0 23 100 100 100 100 100 93 14 0 18 74 99 100 100 100
81 100 100 100 100 50 100 100 100 100 100 100 5 0 0 3 1 0 0 0 0 0 0 0 0 0 0 0 0 0 0 0 5 1 0 16 100 100 100 100 100 77 28 0 0 1 100 100 100
100 100 100 100 100 100 100 100 100 100 100 100 55 5 5 5 5 1 0 0 5 2 0 0 0 0 0 0 0 0 0 0 0 0 0 2 46 100 100 100 100 100 13 3 0 0 0 13 33
90 99 100 100 100 98 100 100 96 100 100 100 100 100 96 15 5 3 5 1 5 5 5 5 3 5 1 0 0 0 0 0 0 0 0 0 6 84 100 100 100 100 20 54 6 94 7 1 5
100 100 100 97 100 100 100 100 100 100 100 100 100 100 71 46 46 18 13 44 59 6 5 5 5 5 5 5 5 4 3 1 1 4 4 8 60 79 95 100 100 100 100 100 83 100 99 48 100
100 100 100 100 99 100 100 100 100 100 100 100 100 100 95 77 71 98 85 18 38 55 44 90 12 5 5 2 0 1 2 2 1 0 0 2 6 5 3 18 87 100 90 65 90 100 100 98 93
100 100 100 100 100 100 100 100 100 100 100 100 99 36 22 51 90 42 38 37 38 99 83 5 5 5 5 0 0 0 0 0 0 5 24 32 42 42 64 93 92 71 53 26 37 48 100 100 100

GFSSGP_prec_cloud_111.txt.gz
Cloud_Cover
5 4 0 3 6 97 16 88 5 5 7 58 73 32 3 0 0 75 91 16 10 24 26 26 5 62 11 4 5 5 0 1 0 0 0 0 0 0 0 0 0 0 0 0 0 0 0 0 0
49 5 0 0 2 23 70 0 0 1 1 13 9 87 19 1 1 3 6 2 5 57 9 14 1 1 1 0 3 5 5 4 0 0 0 0 0 0 0 0 0 0 0 0 0 0 0 0 0
50 97 5 4 4 34 97 6 5 0 33 72 2 0 4 0 0 100 47 4 13 2 0 6 0 0 0 0 0 0 0 1 0 1 3 0 0 0 0 0 0 0 13 0 0 0 0 0 0
4 2 0 0 3 18 84 24 99 1 4 15 64 29 4 0 0 2 3 11 1 0 0 4 0 0 0 0 0 0 0 0 0 4 3 0 1 5 0 0 0 0 0 0 0 0 0 0 0
31 3 0 0 0 6 7 100 100 25 86 6 53 5 4 0 0 0 0 0 2 0 0 3 0 0 0 0 0 0 0 0 0 0 0 0 1 0 0 0 0 0 0 0 0 0 0 0 0
72 49 3 0 0 2 5 99 100 97 44 11 5 32 0 0 0 0 0 0 0 0 0 1 4 0 0 0 0 0 0 0 0 0 2 0 0 0 0 0 0 0 0 0 0 0 0 0 0
32 39 5 1 2 0 0 89 96 100 100 98 49 5 10 0 0 0 0 0 20 1 0 2 34 30 10 0 0 0 0 0 0 0 0 0 0 0 0 0 0 0 0 0 0 0 0 0 0
5 5 2 2 2 0 1 4 5 96 100 58 93 73 54 0 1 5 29 0 5 10 0 3 49 42 10 51 11 0 3 89 100 41 2 1 0 0 0 0 0 0 0 0 0 0 0 0 0
2 0 0 5 5 53 97 67 5 5 37 94 59 12 6 4 0 7 100 2 4 40 7 5 0 10 37 20 56 65 100 100 100 100 91 30 11 4 5 1 0 0 0 0 0 0 0 0 0
0 0 2 91 66 91 100 68 0 0 1 0 7 68 88 6 4 4 56 24 0 24 99 5 2 1 0 24 94 100 100 100 100 100 100 100 60 52 7 31 13 0 0 0 0 0 0 0 0
0 0 0 0 76 100 100 97 5 0 0 16 71 100 73 1 1 5 24 5 100 16 90 96 50 90 98 36 88 100 100 100 100 100 100 100 100 100 100 100 98 14 5 3 0 0 10 5 5
0 0 0 0 0 9 84 100 86 7 0 96 93 8 5 0 0 100 97 63 16 41 47 84 100 100 100 100 100 100 100 100 100 100 100 100 100 100 100 100 100 100 98 26 16 35 11 20 5
0 0 0 0 0 0 0 52 100 57 97 100 100 100 14 11 1 8 100 5 58 40 54 38 100 100 100 100 100 100 100 100 100 100 100 100 100 100 89 100 92 92 100 99 100 100 93 58 91
0 0 0 0 0 0 0 0 27 100 100 100 100 100 95 28 98 34 72 27 23 32 5 99 100 100 100 100 100 100 100 100 100 100 100 98 100 100 100 91 84 99 100 93 100 100 96 55 32
0 0 0 0 0 0 0 0 0 0 87 100 100 100 100 84 100 100 100 99 2 44 0 5 6 96 95 95 100 100 100 100 100 100 100 100 100 100 99 100 100 100 83 99 100 100 100 96 98
0 0 0 0 0 0 5 0 0 0 0 0 25 100 100 100 100 100 100 100 4 0 5 7 1 41 58 97 95 100 100 100 100 100 100 100 100 100 100 100 100 100 100 100 100 100 100 100 100
0 0 0 0 0 0 0 0 7 0 0 0 0 0 97 100 100 100 100 100 100 7 25 5 26 78 20 12 5 36 73 100 100 100 100 100 100 100 100 100 100 100 100 100 100 100 100 100 100
11 0 0 0 0 0 0 0 17 76 0 0 0 0 0 96 100 100 100 100 100 100 94 18 95 13 96 100 16 45 90 100 100 100 100 100 100 100 100 100 100 100 100 100 100 70 100 100 100
4 5 0 0 5 41 0 0 5 100 17 0 0 0 0 0 31 100 100 100 100 100 100 100 100 100 100 5 77 100 100 100 100 100 100 100 100 100 100 100 98 81 43 46 21 100 100 100 100
1 0 1 0 4 51 5 8 5 100 100 16 1 0 0 0 0 0 85 100 100 100 100 100 100 100 100 100 100 100 100 100 100 100 100 100 100 100 100 100 97 20 51 40 52 100 98 100 100
50 12 5 1 2 100 74 8 68 76 100 90 58 70 9 0 8 2 0 1 70 78 100 100 86 100 100 100 100 100 100 100 79 81 100 100 100 100 100 100 100 100 99 100 94 85 100 100 100
100 100 100 94 22 75 88 5 41 44 100 100 100 35 58 0 1 0 0 0 5 5 1 4 5 13 66 100 100 100 100 100 100 100 100 100 99 95 74 100 50 42 29 0 0 16 87 100 100
100 100 99 100 80 5 49 48 5 100 100 100 100 85 98 100 4 0 5 4 0 0 0 0 0 0 0 0 1 88 99 100 100 100 100 100 100 100 76 19 7 19 11 1 0 4 34 53 100
100 100 36 59 100 22 82 25 1 100 100 100 100 100 46 100 15 14 70 75 5 14 4 4 5 5 0 0 0 0 0 0 0 0 0 35 14 0 0 0 0 0 0 0 0 40 51 100 100
100 67 96 100 69 48 10 43 5 71 87 100 100 90 8 97 93 90 100 81 16 95 100 100 100 71 3 0 0 0 0 0 0 0 0 0 0 0 0 0 0 0 0 0 0 0 0 20 100
100 100 98 56 9 83 63 0 33 14 2 100 100 100 99 100 100 100 99 99 100 100 100 100 100 10 0 0 0 0 0 0 0 0 0 0 0 0 0 0 0 0 0 0 0 0 0 0 55
100 100 100 99 5 5 3 22 38 99 4 60 66 95 100 100 100 88 100 100 100 100 100 100 69 5 5 0 0 0 0 0 0 0 0 0 0 0 0 0 0 0 0 0 0 0 0 0 0
100 100 100 92 57 11 6 31 100 61 89 9 100 100 97 100 100 100 100 100 100 100 98 70 36 5 5 1 0 0 0 0 0 0 0 0 0 1 0 0 0 0 0 0 0 0 0 0 0
100 100 100 82 65 84 93 74 100 89 52 100 100 95 57 100 100 100 100 100 100 100 100 100 9 5 5 5 0 0 0 0 0 0 0 1 5 1 5 2 0 0 0 0 0 0 0 0 0
100 100 64 95 51 100 100 100 100 100 100 100 100 77 80 70 96 56 46 100 100 100 100 100 98 90 82 5 0 0 1 0 0 0 0 5 5 49 6 0 0 0 0 0 0 0 0 1 1

GFSSGP_prec_cloud_114.txt.gz
Cloud_Cover
6 65 46 5 82 100 100 77 1 5 4 5 5 42 50 69 35 74 59 2 3 82 82 15 11 40 31 15 5 5 3 0 0 0 0 0 0 0 0 0 2 0 1 0 0 3 3 0 0
76 5 0 5 74 100 100 77 5 5 5 5 33 66 8 5 39 36 3 4 4 69 21 73 5 37 33 4 1 5 2 0 0 0 0 2 2 4 5 3 4 0 0 0 0 0 0 0 0
99 84 5 4 61 100 100 28 5 0 5 5 4 5 3 4 58 27 3 1 13 41 10 10 31 27 28 3 0 0 0 0 0 0 0 1 0 0 0 4 3 4 5 0 0 0 0 0 0
100 100 54 5 88 100 100 100 82 0 0 1 0 3 0 0 0 3 2 1 100 100 100 5 0 0 1 1 0 0 0 0 0 0 0 0 0 0 0 0 1 0 15 0 0 0 0 0 0
97 31 56 73 100 100 100 100 100 5 0 0 0 0 0 0 0 0 0 12 100 100 82 49 0 0 5 0 0 0 0 0 0 0 0 0 0 0 0 0 0 0 0 0 0 0 0 0 0
100 100 81 7 95 100 100 100 100 5 5 3 0 1 0 0 2 0 0 0 5 77 86 43 3 0 0 0 0 0 0 0 0 0 0 0 5 3 4 2 0 0 0 0 0 0 0 5 4
100 100 100 97 73 96 100 100 100 57 96 3 0 1 32 0 4 4 2 0 0 0 5 56 52 24 9 0 0 0 0 0 0 0 0 5 5 5 5 5 5 5 0 2 4 0 0 1 5
5 1 5 4 100 100 100 100 100 100 76 29 5 0 5 6 2 6 4 0 0 0 0 57 86 71 55 29 0 0 0 0 0 0 17 98 100 100 100 100 88 67 99 86 97 74 6 1 5
0 2 1 42 28 100 100 96 100 96 64 95 5 5 51 40 62 1 4 4 5 6 42 63 90 57 6 48 23 3 0 0 0 3 5 5 100 100 100 100 100 100 100 100 100 100 76 15 8
0 0 4 2 1 54 100 23 7 20 29 9 8 25 5 89 100 99 9 64 5 64 66 55 91 49 22 19 24 42 58 87 77 60 18 100 100 100 100 100 99 98 100 100 100 98 90 100 44
0 0 2 0 0 0 1 1 5 5 5 30 0 1 5 5 41 100 99 6 8 38 88 63 65 30 7 22 68 82 92 100 100 100 100 100 100 100 100 100 100 100 97 100 100 100 100 100 99
0 0 0 0 0 1 5 0 0 4 86 100 59 1 0 11 5 1 3 13 36 29 7 5 100 100 100 87 100 100 100 100 100 100 100 98 100 100 100 100 96 100 100 100 100 96 80 97 100
0 0 0 0 0 0 0 2 0 0 15 100 100 100 100 29 5 5 34 34 45 7 12 84 69 72 57 87 100 100 100 100 100 100 100 100 100 100 100 97 100 48 67 87 100 100 96 97 100
0 0 0 0 0 0 0 0 0 0 0 0 100 100 100 100 100 30 68 96 32 2 18 10 5 21 5 72 100 100 100 100 100 100 100 100 100 100 100 100 100 90 89 78 99 93 85 100 88
0 0 0 0 0 0 0 0 0 0 0 0 0 100 100 100 100 81 18 37 13 4 6 5 5 5 5 64 100 100 100 100 100 100 100 100 100 100 100 100 100 100 100 100 100 100 100 100 98
4 0 2 0 2 0 0 0 0 0 0 0 0 0 86 100 100 100 7 42 60 30 5 52 48 79 42 61 100 100 100 100 100 100 100 100 100 100 100 100 100 100 100 100 100 100 100 100 100
56 48 92 70 2 0 0 0 0 0 0 0 0 0 0 0 79 100 100 47 89 54 5 68 87 32 87 17 100 100 100 100 97 100 100 100 96 100 100 100 100 100 100 100 100 100 100 100 100
100 100 96 37 1 4 0 0 0 0 0 0 0 2 0 0 0 62 100 100 100 100 93 5 28 98 20 65 100 76 100 100 100 100 100 100 100 88 6 88 100 100 100 100 100 100 100 100 100
98 5 100 68 93 5 4 8 0 0 0 0 0 25 10 0 0 0 27 100 100 100 100 86 90 100 100 100 100 77 86 100 100 100 100 100 100 100 55 35 87 100 100 100 100 100 100 100 100
5 5 5 40 99 24 81 2 0 0 0 0 2 30 90 5 2 0 0 0 73 95 94 100 100 100 100 99 100 100 100 100 100 100 100 100 100 100 100 100 88 96 100 100 100 100 100 100 100
3 5 60 82 100 99 69 0 0 0 0 17 22 33 100 47 50 0 0 0 0 0 82 85 100 100 100 100 100 100 100 100 100 100 100 100 100 100 100 100 100 100 100 100 100 99 100 100 97
1 89 100 100 100 100 67 4 5 2 5 66 15 75 45 100 100 75 4 32 6 24 8 0 95 100 100 100 100 100 100 100 100 100 100 100 100 97 100 100 100 100 94 100 100 100 98 97 64
95 100 100 100 100 100 5 25 5 4 5 36 100 62 32 100 100 100 82 0 0 7 0 0 0 2 89 100 100 100 100 100 100 100 100 100 100 100 100 100 100 100 100 100 100 100 100 100 100
98 100 97 100 75 15 4 29 5 4 27 34 100 90 3 98 100 100 32 1 1 0 0 3 0 28 47 7 79 80 100 100 100 100 100 98 100 100 100 100 100 96 97 100 100 100 75 34 38
66 100 100 98 5 3 98 100 81 97 40 96 100 6 4 100 100 100 100 86 75 18 3 0 1 0 12 30 18 17 8 56 5 2 19 6 33 25 2 43 45 29 10 0 0 0 0 0 0
94 98 100 100 100 100 100 53 61 74 16 100 74 5 58 14 100 100 100 100 100 36 38 6 49 43 11 6 26 91 100 100 24 0 0 0 0 0 0 0 0 0 0 0 0 0 0 0 0
100 100 100 100 100 100 93 22 9 5 65 63 8 87 58 100 100 97 100 100 100 87 87 95 97 89 100 100 100 100 75 64 3 0 0 0 0 0 0 0 0 0 0 0 0 0 0 0 0
100 100 100 100 100 52 99 99 41 5 5 16 3 14 71 100 100 100 100 100 100 100 100 100 100 100 100 96 94 97 100 86 5 5 2 0 0 0 0 0 0 0 0 0 0 0 0 0 0
100 100 100 100 100 74 77 99 100 5 5 9 11 73 66 100 100 100 100 100 100 100 100 100 100 100 100 100 100 100 100 69 32 5 5 4 4 0 0 0 0 0 0 0 0 0 4 4 0
100 100 100 100 100 97 100 100 100 51 95 100 100 100 100 100 100 100 100 100 100 100 100 100 100 99 99 100 100 100 100 97 79 6 5 5 0 0 0 0 0 0 0 5 5 5 5 5 0

GFSSGP_prec_cloud_117.txt.gz
Cloud_Cover
5 87 98 98 98 100 100 82 92 7 5 2 5 5 5 98 68 41 33 9 24 99 100 100 100 50 52 68 15 53 10 5 3 0 0 0 0 0 0 0 0 0 3 6 0 0 0 0 0
5 9 84 100 99 100 100 21 5 8 2 0 1 27 28 94 97 36 58 6 5 15 89 100 51 10 18 3 0 0 0 0 0 0 0 0 0 0 0 0 0 0 0 0 0 0 0 0 0
55 10 5 100 100 100 100 54 0 60 56 5 1 4 5 54 100 93 40 85 5 8 35 55 37 11 48 10 4 0 0 0 0 0 0 0 0 0 0 0 0 0 0 0 0 0 0 0 0
99 100 100 63 100 100 100 86 5 2 66 81 5 2 0 0 5 5 5 5 51 12 19 41 77 65 60 69 8 4 0 0 0 0 0 0 0 0 0 0 5 4 14 0 0 0 0 0 0
93 96 49 100 100 100 100 100 100 6 0 1 2 1 5 0 5 36 77 0 3 36 20 39 72 100 100 38 25 3 0 0 0 0 0 0 0 0 0 4 5 55 75 23 100 31 8 5 3
90 67 82 75 100 100 100 100 100 99 5 5 0 0 3 5 5 5 50 9 5 31 56 45 43 100 100 99 52 2 0 0 0 0 0 0 0 0 0 55 100 100 70 61 74 99 100 97 60
0 6 33 54 100 100 100 100 100 70 5 3 5 0 0 5 6 37 6 1 0 32 57 61 48 78 89 90 98 0 0 0 0 0 0 0 0 0 0 5 5 87 100 100 100 100 66 6 17
5 1 5 100 100 100 100 100 100 21 3 5 5 0 0 3 0 34 50 9 9 72 84 100 51 63 45 20 0 0 0 0 0 0 0 0 0 3 0 1 5 57 100 100 100 100 100 100 100
39 6 47 90 100 100 100 100 100 6 69 2 5 5 5 5 5 12 24 22 17 66 100 95 97 100 69 45 13 3 0 0 0 0 0 2 22 11 5 56 42 75 100 100 100 100 94 93 100
16 84 98 70 5 17 88 100 100 89 9 5 3 32 5 5 30 51 82 76 84 98 100 100 100 100 84 73 52 55 4 14 16 37 42 30 87 89 100 100 100 100 100 100 100 100 92 100 100
7 45 55 34 14 12 5 5 30 36 8 5 1 4 2 9 80 46 80 100 100 100 100 100 100 63 52 58 100 89 71 33 34 98 100 100 100 100 100 100 100 100 100 100 100 91 100 97 100
0 0 4 78 5 5 5 1 5 5 5 5 6 1 0 5 5 5 83 100 100 100 100 96 85 40 40 37 64 100 100 100 100 100 100 100 100 100 59 98 95 100 100 100 83 81 100 100 94
0 0 0 0 0 5 7 2 5 3 5 1 4 5 5 3 4 6 93 67 92 100 100 100 100 87 100 98 57 100 100 100 100 100 100 100 100 100 100 100 100 98 100 90 100 100 100 91 94
0 0 0 0 0 0 0 0 0 0 1 0 0 0 0 3 9 47 66 99 100 79 85 59 99 92 62 91 80 38 99 100 100 100 83 100 100 100 100 100 93 99 96 100 100 99 100 98 94
0 0 0 0 0 0 0 0 2 0 0 0 0 0 0 0 0 1 4 66 49 57 100 80 90 100 88 15 45 94 100 100 100 100 100 100 100 100 100 100 100 80 99 100 89 86 82 88 99
0 0 0 1 0 0 0 0 0 0 0 0 0 0 0 0 0 0 1 5 51 10 16 6 57 98 98 94 51 100 100 87 100 100 100 100 100 100 100 100 100 100 100 100 99 100 100 100 100
0 0 1 53 97 88 1 0 0 0 0 0 0 0 0 0 0 0 0 1 50 10 12 5 43 24 100 87 98 100 100 88 93 28 90 100 100 100 100 100 100 100 100 100 100 100 100 100 100
59 61 67 44 100 28 5 23 12 3 0 0 0 0 0 0 0 0 0 0 0 1 6 74 81 100 100 100 100 100 100 93 67 100 100 100 100 100 100 100 100 100 100 100 100 100 98 5 76
4 0 5 4 34 4 41 45 15 38 5 0 0 0 0 0 0 0 0 0 0 0 0 5 96 78 100 100 100 100 100 100 100 100 100 100 100 100 100 100 100 100 100 100 100 100 79 100 44
5 5 2 2 41 5 23 5 1 18 0 0 0 0 0 0 0 0 0 5 1 0 0 0 85 100 100 100 100 100 100 100 100 100 100 100 100 100 100 100 100 81 52 34 97 86 100 82 61
10 5 1 5 65 0 3 5 5 4 5 0 0 0 0 0 0 0 13 27 20 2 0 0 0 10 13 96 100 100 100 100 100 100 100 100 100 100 100 100 100 100 100 99 100 100 100 89 100
10 72 26 100 85 3 5 5 5 5 8 97 3 4 0 0 0 0 4 100 100 34 27 31 4 71 95 81 97 100 100 100 100 100 100 100 100 100 100 100 100 100 100 100 100 100 100 100 100
100 100 100 100 100 99 9 5 84 5 2 10 7 63 51 40 42 100 99 100 100 94 27 24 17 20 94 94 4 65 98 100 100 100 100 100 100 100 100 100 100 100 100 100 100 100 100 100 100
100 100 100 100 64 2 5 3 62 31 2 8 99 100 100 90 100 100 100 100 100 96 25 12 82 100 100 100 42 23 41 45 46 100 100 100 100 100 100 100 100 100 100 100 100 100 100 100 74
95 100 75 6 5 0 33 5 5 94 4 93 100 89 71 58 85 97 100 100 100 100 100 94 100 98 100 100 95 84 74 96 5 48 39 100 100 100 100 100 100 100 100 100 98 100 100 75 4
100 100 100 100 95 19 90 5 52 100 99 100 99 12 46 33 4 9 9 100 100 100 100 100 100 100 100 100 100 100 100 100 37 3 4 10 7 78 100 100 100 100 58 24 16 0 0 0 0
11 84 66 100 100 39 46 12 100 100 100 89 4 45 76 34 5 44 76 98 100 100 100 100 100 100 100 100 100 100 82 72 10 8 3 5 0 4 5 0 0 0 0 0 0 0 0 0 0
100 64 100 57 29 4 23 25 100 100 94 4 87 97 41 22 84 23 72 100 100 100 100 100 100 100 100 100 82 46 33 87 44 6 5 1 2 5 5 5 5 3 0 0 0 0 0 0 0
80 95 57 44 5 2 70 97 100 100 5 88 100 99 6 89 10 6 69 100 100 100 100 100 100 100 100 100 100 100 89 93 100 83 96 89 38 59 5 3 3 0 0 0 0 0 0 0 0
100 31 44 90 5 5 82 100 100 100 44 76 100 97 77 100 98 100 100 100 100 100 100 100 100 87 100 100 100 100 100 100 100 100 100 100 100 70 38 5 5 5 0 0 0 0 0 0 1